This demonstration page uses our WeatherBlox Daily Observations layout. Learn more.

Left ArrowRight Arrow

Hourly Observations for May 24, 2022

Temp ( °F °C ) Dew Point ( °F °C ) Humidity (%) Winds ( mph kmh ) Pressure ( in mb ) Visibility ( mi km ) Precip ( " mm )
12:59 am 00:59 Cloudy 70 21.1 56 13.3 61 61 Calm 30.20 1023 10 16 0.00 0.00
1:59 am 01:59 Cloudy with Light Rain 66 18.9 57 13.9 73 73 E 5 7 30.18 1022 6 10 0.02 0.51
2:59 am 02:59 Cloudy with Light Rain 69 20.6 62 16.7 78 78 E 8 13 30.15 1021 3 5 0.13 3.30
3:59 am 03:59 Mostly Cloudy 64 17.8 59 15 84 84 E 13 20 30.13 1020 10 16 0.01 0.25
4:59 am 04:59 Cloudy 66 18.9 63 17.2 90 90 E 8 13 30.12 1020 10 16 0.00 0.00
5:59 am 05:59 Mostly Cloudy 66 18.9 59 15 78 78 E 9 15 30.12 1020 10 16 0.00 0.00
6:59 am 06:59 Cloudy 65 18.3 59 15 81 81 E 13 20 30.14 1021 10 16 0.00 0.00
7:59 am 07:59 Cloudy 65 18.3 59 15 81 81 E 7 11 30.16 1021 10 16 0.00 0.00
8:59 am 08:59 Cloudy 66 18.9 60 15.6 81 81 E 12 19 30.15 1021 10 16 0.00 0.00
9:59 am 09:59 Cloudy 67 19.4 60 15.6 79 79 E 14 22 30.15 1021 10 16 0.00 0.00
10:33 am 10:33 Cloudy with Light Rain 67 19.4 60 15.6 79 79 E 7 11 30.15 1021 5 8 0.00 0.00
10:35 am 10:35 Cloudy with Rain 67 19.4 60 15.6 79 79 E 8 13 30.15 1021 1 2 0.00 0.00
10:39 am 10:39 Cloudy with Light Rain 67 19.4 60 15.6 79 79 E 13 20 30.15 1021 2 3 0.01 0.25
10:41 am 10:41 Cloudy with Light Rain 67 19.4 60 15.6 79 79 E 14 22 30.16 1021 5 8 0.01 0.25
10:59 am 10:59 Cloudy with Light Rain 68 20 60 15.6 76 76 E 10 17 30.16 1021 3 5 0.05 1.27
11:59 am 11:59 Cloudy with Light Rain 68 20 60 15.6 76 76 E 14 22 30.15 1021 2 3 0.06 1.52
12:59 pm 12:59 Cloudy with Mist and Fog 67 19.4 62 16.7 84 84 undefined N/A 30.16 1021 5 8 0.09 2.29
1:57 pm 13:57 Cloudy with Mist and Fog 68 20 63 17 83 83 E 16 26 30.14 1021 6 10 0.08 2.03
1:59 pm 13:59 Cloudy with Mist and Fog 68 20 62 16.7 81 81 E 18 30 30.14 1021 7 11 0.08 2.03
2:48 pm 14:48 Cloudy with Light Rain 65 18.3 60 15.6 84 84 ENE 16 26 30.15 1021 2 3 0.01 0.25
2:59 pm 14:59 Cloudy with Light Rain 65 18.3 60 15.6 84 84 NE 14 22 30.16 1022 2 3 0.02 0.51
3:01 pm 15:01 Cloudy with Light Rain 65 18.3 60 15.6 84 84 NE 16 26 30.17 1022 1 2 0.00 0.00
3:13 pm 15:13 Cloudy with Light Rain 65 18.3 60 15.6 84 84 NE 15 24 30.16 1021 2 3 0.02 0.51
3:57 pm 15:57 Cloudy with Light Rain 64 18 61 16 88 88 ENE 17 28 30.14 1021 4 6 0.08 2.03
3:59 pm 15:59 Cloudy with Light Rain 64 17.8 60 15.6 87 87 ENE 16 26 30.14 1021 4 6 0.08 2.03
4:59 pm 16:59 Cloudy 64 17.8 60 15.6 87 87 ENE 23 37 30.15 1021 7 11 0.06 1.52
5:59 pm 17:59 Cloudy 63 17.2 57 13.9 81 81 E 18 30 30.15 1021 8 13 0.00 0.00
6:59 pm 18:59 Cloudy with Mist and Fog 63 17.2 56 13.3 78 78 ENE 22 35 30.18 1022 6 10 0.00 0.00
7:37 pm 19:37 Cloudy with Light Rain N/A N/A N/A ENE 20 31 N/A 4 6 0.00 0.00
7:46 pm 19:46 Cloudy with Light Rain 63 17.2 56 13.3 78 78 ENE 18 30 30.19 1022 2 3 0.00 0.00
7:59 pm 19:59 Cloudy with Light Rain 63 17.2 56 13.3 78 78 ENE 16 26 30.19 1022 2 3 0.01 0.25
8:01 pm 20:01 Cloudy with Light Rain N/A N/A N/A ENE 18 30 N/A 3 4 0.00 0.00
8:03 pm 20:03 Cloudy with Light Rain 61 16.1 57 13.9 87 87 ENE 18 30 30.20 1023 3 4 0.00 0.00
8:59 pm 20:59 Cloudy with Light Rain 61 16.1 57 13.9 87 87 ENE 13 20 30.21 1023 3 5 0.02 0.51
9:11 pm 21:11 Cloudy with Light Rain N/A N/A N/A NE 15 24 N/A 4 6 0.00 0.00
9:59 pm 21:59 Cloudy with Light Rain 61 16.1 57 13.9 87 87 NE 13 20 30.23 1024 5 8 0.02 0.51
10:59 pm 22:59 Cloudy with Light Rain 61 16.1 57 13.9 87 87 NE 14 22 30.24 1024 3 5 0.01 0.25
11:59 pm 23:59 Cloudy with Mist and Fog 59 15 56 13.3 90 90 NE 13 20 30.23 1024 6 10 0.02 0.51

Powered by AerisWeather